sat.trackr.live / text

‹ back to catalog

STARLINK-5441

NORAD 54787 · 2022-175AF

PAYLOAD ACTIVE UNKNOWN

§ Identity

Operator
Country
US
Launch date
2022-12-17
Launch site
AFETR
Launch vehicle
Mass (kg)
RCS (m²)

Purposes: comms

External: N2YO · Heavens-Above · Gunter

§ Orbital elements

Epoch: 2026-05-25T03:14:23.616384Z

Period
95.44 min
Inclination
53.2132°
Eccentricity
0.0001355
Mean motion
15.08838676 rev/d
Perigee alt
538.8 km
Apogee alt
540.7 km
Semi-major
6,917.9 km
B*
1.5734e-5
RAAN
60.6629°
Arg perigee
69.2800°
Mean anomaly
290.8338°
Rev number
19,146

§ Raw data

STARLINK-54411 54787U 22175AF  26145.13499556 -.00000038  00000+0  15734-4 0  99932 54787  53.2132  60.6629 0001355  69.2800 290.8338 15.08838676191463

JSON: /api/v1/satellites/54787 · /tle

For live sub-satellite position, see the globe view (requires WebGL).

§ Visibility from observer

Set your observer location to see the next 7 days of passes ≥ 10°. The values pass through the URL so the page stays shareable.

No JS? Fill the form by hand. The geolocation button needs JavaScript.